Tracking 20621 objects as of 31-Mar-2020
HD Live streaming from Space Station
objects crossing your sky now

COSMOS 1348

Track COSMOS 1348 now!
COSMOS 1348 is classified as:


NORAD ID: 13124
Int'l Code: 1982-029A
Perigee: 7,770.9 km
Apogee: 32,641.5 km
Inclination: 71.8 °
Period: 718.7 minutes
Semi major axis: 26577 km
RCS: 16.1516 m2 (large)
Launch date: April 7, 1982
Source: Commonwealth of Independent States (former USSR) (CIS)
Launch site: PLESETSK MISSILE AND SPACE COMPLEX (PKMTR)
aabbcc
Your satellite tracking list
Your tracking list is empty




NASA's NSSDC Master Catalog

Two Line Element Set (TLE):
1 13124U 82029A   20089.56870806 +.00000108 +00000-0 +00000-0 0  9990
2 13124 071.8185 230.0301 4678942 037.8753 355.7960 02.00372981277907
Source of the keplerian elements: AFSPC